• In Hungary
  • List of Countries
  • For 7 days
  • Water Temperature
  • Satellite Maps
  • Weather Map
  • News
  • Weather Widgets
  • user-avatar
    Login

    Hourly Weather Oblotne

    Today, 17 August, Friday

    Time Temperature Precipitation Wind Pressure Humidity
    00:00 +20°C° 0 mm 2 mps 755 mmHg 64%
    01:00 +19°C° 0 mm 2 mps 755 mmHg 66%
    02:00 +19°C° 0 mm 2 mps 755 mmHg 67%
    03:00 +19°C° 0 mm 2 mps 754 mmHg 68%
    04:00 +18°C° 0 mm 2 mps 754 mmHg 70%
    05:00 +19°C° 0 mm 2 mps 754 mmHg 67%
    06:00 +21°C° 0 mm 2 mps 754 mmHg 65%
    07:00 +22°C° 0 mm 3 mps 754 mmHg 62%
    08:00 +25°C° 0 mm 3 mps 754 mmHg 56%
    09:00 +27°C° 0 mm 3 mps 754 mmHg 50%
    10:00 +29°C° 0 mm 3 mps 754 mmHg 45%
    11:00 +30°C° 0 mm 3 mps 754 mmHg 42%
    12:00 +30°C° 0 mm 2 mps 754 mmHg 39%
    13:00 +31°C° 0 mm 2 mps 753 mmHg 36%
    14:00 +31°C° 0 mm 2 mps 753 mmHg 37%
    15:00 +31°C° 0 mm 2 mps 753 mmHg 37%
    16:00 +31°C° 0 mm 1 mps 753 mmHg 38%
    17:00 +29°C° 0 mm 2 mps 753 mmHg 42%
    18:00 +28°C° 0 mm 2 mps 753 mmHg 46%
    19:00 +27°C° 0 mm 2 mps 753 mmHg 49%
    20:00 +26°C° 0 mm 2 mps 753 mmHg 52%
    21:00 +25°C° 0 mm 2 mps 753 mmHg 54%
    22:00 +24°C° 0 mm 2 mps 754 mmHg 56%
    23:00 +23°C° 0.2 mm 2 mps 754 mmHg 61%

    Tomorrow, 18 August, Saturday

    Time Temperature Precipitation Wind Pressure Humidity
    00:00 +23°C° 0.2 mm 2 mps 754 mmHg 65%
    01:00 +21°C° 0.2 mm 2 mps 754 mmHg 70%
    02:00 +21°C° 0.1 mm 2 mps 755 mmHg 72%
    03:00 +22°C° 0.1 mm 1 mps 755 mmHg 74%
    04:00 +21°C° 0.1 mm 1 mps 755 mmHg 77%
    05:00 +21°C° 0 mm 2 mps 755 mmHg 78%
    06:00 +21°C° 0 mm 2 mps 756 mmHg 79%
    07:00 +21°C° 0 mm 2 mps 756 mmHg 81%
    08:00 +21°C° 0.1 mm 3 mps 756 mmHg 80%
    09:00 +22°C° 0.1 mm 3 mps 756 mmHg 79%
    10:00 +22°C° 0.1 mm 3 mps 757 mmHg 78%
    11:00 +24°C° 0.1 mm 3 mps 757 mmHg 72%
    12:00 +25°C° 0.1 mm 3 mps 757 mmHg 66%
    13:00 +26°C° 0.1 mm 3 mps 757 mmHg 60%
    14:00 +26°C° 0.1 mm 3 mps 757 mmHg 59%
    15:00 +26°C° 0.1 mm 3 mps 757 mmHg 58%
    16:00 +26°C° 0.1 mm 3 mps 757 mmHg 57%
    17:00 +25°C° 0 mm 2 mps 757 mmHg 60%
    18:00 +24°C° 0 mm 2 mps 757 mmHg 62%
    19:00 +23°C° 0 mm 1 mps 757 mmHg 65%
    20:00 +22°C° 0 mm 1 mps 757 mmHg 67%
    21:00 +21°C° 0 mm 1 mps 757 mmHg 69%
    22:00 +20°C° 0 mm 1 mps 758 mmHg 71%
    23:00 +20°C° 0 mm 1 mps 758 mmHg 71%

    Day after tomorrow, 19 August, Sunday

    Time Temperature Precipitation Wind Pressure Humidity
    00:00 +19°C° 0 mm 1 mps 758 mmHg 72%
    01:00 +17°C° 0 mm 0 mps 758 mmHg 72%
    02:00 +18°C° 0 mm 1 mps 758 mmHg 72%
    03:00 +18°C° 0 mm 1 mps 758 mmHg 72%
    04:00 +18°C° 0 mm 1 mps 758 mmHg 72%
    05:00 +19°C° 0 mm 1 mps 758 mmHg 68%
    06:00 +19°C° 0 mm 2 mps 758 mmHg 64%
    07:00 +19°C° 0 mm 2 mps 759 mmHg 61%
    08:00 +21°C° 0 mm 2 mps 759 mmHg 54%
    09:00 +24°C° 0 mm 2 mps 759 mmHg 48%
    10:00 +26°C° 0 mm 2 mps 759 mmHg 42%
    11:00 +27°C° 0 mm 3 mps 759 mmHg 41%
    12:00 +27°C° 0 mm 3 mps 758 mmHg 41%
    13:00 +28°C° 0 mm 3 mps 758 mmHg 40%
    14:00 +28°C° 0 mm 3 mps 758 mmHg 42%
    15:00 +28°C° 0 mm 3 mps 758 mmHg 44%
    16:00 +27°C° 0 mm 3 mps 758 mmHg 46%
    17:00 +26°C° 0 mm 3 mps 758 mmHg 51%
    18:00 +25°C° 0 mm 2 mps 758 mmHg 57%
    19:00 +24°C° 0 mm 1 mps 758 mmHg 62%
    20:00 +23°C° 0 mm 1 mps 758 mmHg 65%
    21:00 +22°C° 0 mm 1 mps 758 mmHg 68%
    22:00 +21°C° 0 mm 1 mps 758 mmHg 71%
    23:00 +18°C° 0 mm 0 mps 758 mmHg 72%

    20 August, Monday

    Time Temperature Precipitation Wind Pressure Humidity
    00:00 +18°C° 0 mm 0 mps 758 mmHg 74%
    01:00 +18°C° 0 mm 0 mps 758 mmHg 76%
    02:00 +17°C° 0 mm 0 mps 758 mmHg 77%
    03:00 +17°C° 0 mm 0 mps 758 mmHg 78%
    04:00 +19°C° 0 mm 1 mps 758 mmHg 79%
    05:00 +20°C° 0 mm 1 mps 758 mmHg 75%
    06:00 +21°C° 0 mm 1 mps 758 mmHg 71%
    07:00 +22°C° 0 mm 1 mps 758 mmHg 67%
    08:00 +24°C° 0 mm 1 mps 758 mmHg 61%
    09:00 +26°C° 0 mm 1 mps 758 mmHg 55%
    10:00 +28°C° 0 mm 1 mps 758 mmHg 48%
    11:00 +28°C° 0 mm 1 mps 758 mmHg 47%
    12:00 +29°C° 0 mm 1 mps 757 mmHg 45%
    13:00 +29°C° 0 mm 1 mps 757 mmHg 43%
    14:00 +29°C° 0 mm 1 mps 757 mmHg 42%
    15:00 +29°C° 0 mm 1 mps 756 mmHg 42%
    16:00 +29°C° 0 mm 1 mps 756 mmHg 41%
    17:00 +28°C° 0 mm 1 mps 756 mmHg 45%
    18:00 +27°C° 0 mm 1 mps 756 mmHg 48%
    19:00 +26°C° 0 mm 1 mps 756 mmHg 52%
    20:00 +26°C° 0 mm 1 mps 756 mmHg 53%
    21:00 +25°C° 0 mm 1 mps 756 mmHg 55%
    22:00 +24°C° 0 mm 2 mps 756 mmHg 56%
    23:00 +24°C° 0 mm 2 mps 756 mmHg 57%

    21 August, Tuesday

    Time Temperature Precipitation Wind Pressure Humidity
    00:00 +23°C° 0 mm 2 mps 756 mmHg 59%
    01:00 +23°C° 0 mm 2 mps 756 mmHg 61%
    02:00 +23°C° 0 mm 2 mps 756 mmHg 62%
    03:00 +21°C° 0 mm 2 mps 755 mmHg 63%
    04:00 +21°C° 0 mm 2 mps 755 mmHg 65%
    05:00 +21°C° 0 mm 2 mps 756 mmHg 65%
    06:00 +23°C° 0 mm 2 mps 756 mmHg 64%
    07:00 +24°C° 0 mm 2 mps 756 mmHg 64%
    08:00 +25°C° 0 mm 2 mps 756 mmHg 60%
    09:00 +26°C° 0 mm 2 mps 756 mmHg 56%
    10:00 +28°C° 0 mm 2 mps 756 mmHg 53%
    11:00 +28°C° 0 mm 2 mps 756 mmHg 50%
    12:00 +29°C° 0 mm 2 mps 756 mmHg 48%
    13:00 +30°C° 0 mm 3 mps 756 mmHg 46%
    14:00 +30°C° 0 mm 3 mps 755 mmHg 47%
    15:00 +30°C° 0 mm 3 mps 755 mmHg 47%
    16:00 +29°C° 0 mm 3 mps 755 mmHg 48%
    17:00 +28°C° 0 mm 2 mps 755 mmHg 53%
    18:00 +27°C° 0 mm 2 mps 755 mmHg 57%
    19:00 +26°C° 0 mm 1 mps 755 mmHg 61%
    20:00 +25°C° 0 mm 1 mps 755 mmHg 64%
    21:00 +24°C° 0 mm 1 mps 755 mmHg 67%
    22:00 +23°C° 0 mm 1 mps 755 mmHg 70%
    23:00 +23°C° 0 mm 1 mps 755 mmHg 71%

    22 August, Wednesday

    Time Temperature Precipitation Wind Pressure Humidity
    00:00 +22°C° 0 mm 1 mps 755 mmHg 71%
    01:00 +22°C° 0 mm 1 mps 755 mmHg 72%
    02:00 +22°C° 0 mm 1 mps 755 mmHg 74%
    03:00 +21°C° 0 mm 1 mps 755 mmHg 75%
    04:00 +21°C° 0 mm 1 mps 755 mmHg 77%
    05:00 +22°C° 0 mm 1 mps 755 mmHg 74%
    06:00 +23°C° 0 mm 1 mps 755 mmHg 71%
    07:00 +24°C° 0 mm 1 mps 755 mmHg 68%
    08:00 +25°C° 0 mm 2 mps 755 mmHg 62%
    09:00 +27°C° 0 mm 2 mps 755 mmHg 56%
    10:00 +28°C° 0 mm 2 mps 755 mmHg 50%
    11:00 +29°C° 0.1 mm 2 mps 755 mmHg 49%
    12:00 +29°C° 0.1 mm 3 mps 755 mmHg 48%
    13:00 +30°C° 0.1 mm 3 mps 755 mmHg 47%
    14:00 +29°C° 0.1 mm 3 mps 755 mmHg 49%
    15:00 +29°C° 0.1 mm 3 mps 755 mmHg 50%
    16:00 +28°C° 0.1 mm 3 mps 755 mmHg 52%
    17:00 +27°C° 0 mm 3 mps 755 mmHg 56%
    18:00 +25°C° 0 mm 3 mps 755 mmHg 61%
    19:00 +24°C° 0 mm 2 mps 755 mmHg 66%
    20:00 +23°C° 0 mm 2 mps 756 mmHg 69%
    21:00 +21°C° 0 mm 2 mps 756 mmHg 73%
    22:00 +20°C° 0 mm 2 mps 756 mmHg 76%
    23:00 +19°C° 0 mm 2 mps 756 mmHg 78%
    Show more